FLOCK 2EP-1

Last updated on May 29, 2016, 5:36 p.m. UTC

1 41479U 98067HZ  16150.31888182  .00011947  00000-0  17756-3 0  9998
2 41479  51.6416 152.0853 0002104 244.8288 223.0185 15.55622162  1868
UTC
Height (km)
Latitude
Longitude
Inclination
Orbital Period
UTC large
Height (km)
Speed (km/s)
/
Latitude / Longitude
Inclination (degrees)
Orbital Period (minutes)
Azimuth
Elevation
Range (km)
Doppler Factor
iOS Compass Heading
iOS Angle

Next 30 passes for location: Hong Kong

Rise time Rise Azimuth (degrees) Set time Set Azimuth (degrees) Duration Max altitude (degrees)

No matching passes for this satellites